Wind_Gust
28 33 37 41 41 37 33 32 30 27 22 25 27 27 31 30 26 30 32 29 35 30 31 28 27 28 23 21 19 18 17 18 19 20 20 19 20 18 17 19 21 15 17 19 19 19 20 18 17 17 15 15 13 16 17 16 14 15 15 15 14 10 11 11 12 11 12 13 12 11 12 14 11 14 13 14 13 16 18 15 14 14 14 14 14 14
34 35 39 37 32 31 33 31 29 31 30 28 26 27 30 32 28 28 31 30 35 29 28 24 26 25 23 21 19 19 20 19 20 20 19 19 16 18 19 18 18 20 18 18 16 18 17 18 17 17 17 15 16 16 15 16 16 14 13 15 14 11 10 10 11 11 12 9 10 15 12 13 10 12 14 15 14 19 17 14 13 13 14 14 14 14
40 46 41 33 31 29 31 32 29 32 33 30 30 28 27 32 30 24 30 30 34 30 26 30 29 24 22 22 18 17 16 18 17 20 23 22 21 19 17 19 19 20 20 17 18 17 19 17 17 17 18 16 13 15 16 15 15 13 12 14 12 12 11 11 11 12 15 10 9 11 13 13 15 9 13 18 16 16 17 16 16 14 13 14 15 14
42 41 30 29 30 33 33 34 31 31 35 30 30 30 31 26 32 30 33 31 31 32 22 28 27 23 22 18 18 14 14 16 12 15 18 17 21 18 19 21 22 21 23 19 20 20 18 19 18 16 16 17 17 18 15 15 16 14 13 12 12 13 13 15 13 15 13 12 11 11 12 10 13 17 18 18 16 17 18 17 15 16 15 14 13 13
38 24 28 32 33 34 33 33 34 32 33 31 31 30 29 29 34 32 27 34 32 26 34 29 26 21 17 20 20 19 16 17 15 16 17 16 15 15 14 17 19 20 22 22 20 20 21 19 18 16 13 16 20 17 17 16 15 15 14 13 14 14 15 14 14 15 15 16 12 11 11 11 14 15 16 17 16 16 15 16 16 16 16 15 13 13
32 27 27 32 34 35 37 36 39 33 32 31 31 30 24 25 31 31 25 28 30 27 31 34 23 19 17 19 24 20 20 18 19 18 19 21 19 19 20 20 16 17 19 26 26 25 23 20 20 17 14 12 13 18 17 15 14 14 15 16 15 15 14 14 13 13 13 14 15 13 14 14 14 15 15 16 16 15 14 14 15 15 15 14 13 14
29 29 32 35 35 36 37 34 33 33 31 30 34 32 32 26 33 29 29 27 26 31 32 32 24 17 14 17 21 23 21 20 18 20 18 19 22 20 19 24 21 21 24 22 22 25 23 22 21 19 16 16 15 13 14 15 16 15 17 15 14 14 14 13 12 11 13 12 10 10 11 11 15 18 15 15 14 15 14 13 13 13 12 13 13 13
31 33 33 34 36 38 37 38 36 38 35 37 22 27 28 27 30 33 28 24 19 21 28 28 25 22 18 18 19 20 19 19 19 18 19 22 25 22 20 18 22 18 23 24 25 24 24 22 21 21 18 18 17 16 15 15 14 15 15 15 16 13 13 11 12 11 11 13 10 11 12 14 16 16 17 15 15 14 14 14 12 13 12 12 12 10
31 36 36 37 35 38 40 34 27 36 42 30 23 30 32 30 33 30 29 25 25 27 28 27 25 27 21 19 21 21 19 20 23 24 24 21 23 18 17 18 19 18 20 23 24 24 23 25 22 20 18 18 20 18 17 16 17 15 14 14 13 13 12 11 10 11 9 11 13 14 17 17 16 17 16 14 13 15 14 13 11 14 12 11 11 12
37 32 33 33 36 36 31 35 30 32 40 27 26 30 29 26 27 28 30 28 25 27 24 29 30 30 19 22 21 20 18 23 25 25 24 23 21 19 19 17 20 15 17 21 22 22 21 23 23 21 20 19 16 16 19 17 15 14 14 16 14 13 9 9 10 11 12 13 13 15 15 18 16 14 14 13 14 13 12 15 13 12 11 10 10 11
28 24 29 36 40 32 31 31 33 30 29 24 29 34 33 25 21 24 30 32 23 24 27 25 26 29 24 26 32 31 33 29 24 23 22 23 23 24 21 21 21 18 19 21 22 22 21 20 23 22 21 22 17 14 17 17 15 14 14 13 15 14 13 14 15 15 15 13 13 15 15 16 16 14 14 14 12 13 13 13 11 10 10 9 10 10
33 33 39 41 30 32 27 35 33 34 31 32 34 37 25 24 14 11 16 18 27 27 27 26 28 28 31 22 28 29 24 26 30 29 28 26 27 27 25 22 22 19 19 24 24 24 23 22 21 22 22 21 21 20 18 15 15 15 16 17 17 15 15 15 15 15 15 15 14 12 12 13 13 13 12 13 13 14 14 12 12 10 11 10 9 8
36 40 32 34 32 34 37 32 33 37 37 37 29 27 28 27 24 23 17 16 24 34 21 26 27 30 34 22 32 30 28 29 28 31 34 31 30 27 26 24 25 25 22 25 24 24 23 23 24 23 23 21 20 20 19 17 15 16 17 17 17 14 14 16 14 14 14 14 13 13 12 10 10 11 12 13 13 12 13 12 13 12 12 10 10 10
32 33 39 36 34 41 33 37 36 38 41 38 35 36 31 32 27 22 26 23 24 27 25 23 23 32 15 22 34 34 31 34 30 26 30 33 32 30 28 26 26 26 26 25 23 23 21 21 23 24 24 23 19 19 19 18 16 14 18 18 17 17 15 16 14 14 14 13 13 13 14 13 14 14 15 14 16 13 13 13 13 12 11 10 9 8
29 48 49 43 43 39 40 35 28 27 39 38 30 35 28 33 34 24 30 29 25 21 26 26 29 24 21 14 33 35 29 30 32 31 29 27 29 29 27 28 29 26 24 25 23 21 20 21 20 21 21 21 20 20 17 16 16 17 19 17 17 16 16 17 13 13 13 13 13 13 13 14 13 15 15 14 14 14 15 14 15 13 10 10 9 10
28 34 38 43 25 43 39 31 27 28 28 33 32 26 29 29 24 27 20 22 21 23 21 24 19 10 14 15 20 23 22 25 29 29 29 28 30 29 27 26 26 25 26 24 22 21 20 19 18 19 20 20 21 22 19 18 17 18 18 16 15 14 14 15 14 13 12 13 13 13 14 14 14 14 14 15 15 15 14 14 13 11 9 9 8 8
33 32 34 39 30 37 34 32 29 29 37 32 34 39 30 25 24 14 14 10 8 9 20 12 16 18 21 15 21 25 25 27 30 31 35 31 29 27 26 26 25 25 24 22 22 21 21 19 17 20 20 20 21 21 19 16 17 19 17 17 16 15 15 15 14 13 12 12 13 13 13 12 14 15 14 15 14 14 13 13 11 10 8 7 7 8
25 25 33 40 38 37 35 31 27 31 26 31 36 30 25 25 23 25 23 15 15 17 17 22 20 19 20 17 19 26 25 25 29 34 33 29 31 27 26 26 27 25 22 23 21 20 22 23 24 25 22 19 20 18 19 19 17 17 16 16 16 16 17 15 14 13 13 13 13 13 14 14 14 15 14 13 12 12 12 9 9 7 8 7 7 8
25 25 35 34 33 32 35 34 34 29 30 28 32 19 35 25 26 22 19 19 22 21 19 24 25 24 25 21 23 24 28 27 33 31 32 32 29 27 27 26 24 24 24 24 23 22 22 22 23 23 22 21 19 17 19 20 19 19 18 16 15 17 16 15 14 13 12 11 10 12 13 13 13 12 12 12 12 11 11 10 8 8 8 9 7 9
22 16 31 33 35 33 34 36 35 31 33 32 27 32 27 22 24 22 23 12 22 16 14 20 27 22 26 31 27 27 25 35 31 33 31 33 30 29 29 29 28 28 25 25 24 21 20 24 26 25 24 24 23 21 19 18 18 20 20 19 17 15 15 15 13 12 12 12 12 12 12 12 13 13 13 13 12 11 11 10 9 9 8 7 8 9
18 13 32 38 33 33 38 37 31 31 35 38 37 33 33 29 17 24 25 27 20 18 20 17 20 21 17 31 31 26 32 35 35 32 29 29 27 29 30 31 29 27 26 26 25 23 23 24 25 25 22 26 23 18 18 18 20 21 21 19 17 18 18 16 13 12 11 11 13 13 12 12 12 11 11 11 11 11 10 9 9 8 7 8 9 10
12 19 18 36 40 36 31 29 24 26 28 29 29 27 30 29 26 28 24 25 25 22 20 20 19 13 15 31 26 30 36 35 35 33 30 27 29 29 28 25 26 26 24 26 24 24 25 23 23 23 22 21 22 22 20 19 20 22 22 21 20 20 19 18 19 17 14 12 14 14 13 13 12 12 12 11 11 11 11 9 9 9 9 9 10 11
13 22 21 29 33 32 29 27 26 21 24 28 26 25 28 24 22 28 23 22 26 25 17 20 14 10 15 17 23 34 35 34 33 34 30 28 29 28 27 26 26 25 27 27 26 25 25 22 22 24 23 23 23 23 23 20 20 22 21 21 20 20 19 19 20 19 16 15 15 13 12 13 12 12 11 11 10 11 10 9 8 9 11 10 9 11
9 28 24 29 30 29 27 24 29 27 22 29 31 25 25 29 28 23 21 16 20 14 16 12 16 11 15 5 15 31 30 31 33 32 31 28 27 27 28 28 27 25 24 23 24 24 27 23 22 24 25 27 26 24 21 19 20 23 22 22 22 22 20 19 18 20 18 17 15 13 13 13 13 12 11 11 10 10 10 10 8 9 9 9 12 15
26 17 19 23 30 31 27 29 36 31 26 29 27 25 21 24 29 19 17 10 17 20 21 14 23 12 15 15 27 30 30 30 33 30 31 30 26 26 28 26 25 25 25 24 24 25 25 23 25 27 28 26 27 24 19 20 22 21 21 20 22 22 21 18 18 20 21 17 15 14 13 13 12 12 12 11 10 10 9 9 10 9 11 10 12 12
14 15 22 29 30 32 36 40 43 37 32 27 24 26 27 24 21 23 18 20 19 15 24 18 11 15 13 13 26 31 31 30 28 28 27 32 31 29 28 27 27 27 27 25 23 24 27 26 25 24 23 27 24 24 22 21 21 20 20 21 20 20 19 18 18 18 18 16 16 15 14 13 12 13 12 11 10 10 9 10 9 10 10 12 15 15
16 14 19 23 25 24 22 22 19 20 25 31 25 25 29 27 24 23 17 17 17 10 16 16 21 15 14 14 22 25 30 28 31 30 29 29 27 28 27 27 28 27 27 27 25 25 25 22 24 26 26 24 23 21 21 22 22 21 21 21 19 20 19 18 18 19 18 16 15 16 14 13 12 12 11 10 10 9 10 9 8 10 11 12 14 15
12 13 16 18 22 22 25 24 23 28 29 27 23 20 23 26 22 16 19 19 12 14 17 18 16 20 17 18 19 19 20 29 32 31 30 28 29 29 26 25 22 26 24 24 24 27 27 26 25 26 25 23 21 20 20 20 21 22 22 22 21 20 19 18 18 18 18 17 15 15 15 13 12 12 11 10 11 11 10 10 10 10 10 11 13 15
16 13 17 18 19 23 29 28 26 28 27 27 24 20 23 25 21 20 12 22 19 16 13 13 18 21 16 16 23 18 26 33 29 28 26 27 29 27 26 28 28 28 27 28 28 26 26 27 28 26 24 24 22 22 20 20 21 20 19 19 20 20 20 18 18 18 19 17 16 15 14 13 12 11 11 12 11 11 11 11 10 11 11 11 13 15
13 16 14 18 18 19 26 25 25 26 25 28 28 21 18 20 23 22 20 15 19 12 15 16 19 16 20 19 18 22 30 26 27 27 28 29 29 29 29 29 29 29 30 30 30 28 27 28 26 26 24 24 26 25 25 25 24 22 21 21 21 21 20 20 18 19 18 18 16 15 15 14 12 13 13 12 12 11 11 11 10 11 11 13 15 15
13 13 15 19 14 8 9 9 27 26 24 23 25 23 21 17 17 24 21 15 10 15 12 16 13 12 19 17 19 20 26 24 26 28 30 30 31 31 32 31 31 30 28 30 28 26 26 27 26 26 26 25 25 24 24 24 24 22 21 22 22 21 20 20 19 18 18 18 17 16 15 15 14 14 13 12 12 11 12 12 12 12 13 12 13 16
11 11 14 14 6 11 8 15 15 15 22 24 26 26 25 20 17 17 25 15 14 15 12 14 15 15 10 23 24 27 28 29 27 27 26 26 31 35 35 34 33 34 32 29 28 27 27 27 28 28 27 26 25 25 24 24 23 22 23 23 22 21 21 20 19 19 18 17 17 17 17 15 15 15 14 13 13 13 12 12 12 11 11 10 11 14
15 13 16 12 11 10 12 12 13 15 21 19 17 24 21 17 16 13 16 13 13 10 13 10 13 11 17 21 24 27 28 26 27 29 28 28 28 29 31 31 30 31 32 31 27 28 28 28 27 27 27 25 26 26 24 24 24 24 25 24 22 21 20 20 19 19 19 18 17 17 15 15 16 15 13 13 13 12 12 12 11 11 11 11 10 11
15 14 13 18 17 13 15 14 12 12 19 16 10 13 11 19 22 20 19 15 9 11 16 13 11 6 22 20 28 22 24 29 31 27 32 35 31 27 27 28 32 31 30 30 29 29 26 26 25 26 25 24 23 23 23 24 23 22 23 23 22 21 21 21 20 19 19 18 18 17 16 16 15 15 15 14 13 12 12 13 13 11 10 10 10 11
17 15 11 16 15 16 18 14 13 14 16 9 13 15 14 14 16 20 19 24 21 19 18 15 17 16 10 24 24 25 25 20 19 24 25 28 31 31 31 30 32 32 34 33 30 27 25 26 24 23 21 23 23 23 25 24 22 23 22 22 22 21 22 21 22 20 18 18 18 17 17 17 16 17 17 16 13 13 13 13 13 13 12 12 10 9
11 12 8 15 15 13 18 18 18 16 12 7 11 10 12 17 14 15 13 17 21 25 23 18 19 18 16 16 23 23 20 23 21 22 26 27 26 28 29 30 32 34 33 30 29 27 26 26 26 25 21 21 21 23 23 23 23 23 23 21 22 22 21 21 21 20 18 19 19 18 17 18 18 18 15 14 13 14 13 11 12 13 12 11 10 10
15 15 7 11 18 18 16 17 13 15 10 14 12 9 12 18 14 11 7 12 11 11 18 22 22 21 17 18 20 27 25 26 20 19 20 27 24 26 30 30 29 29 28 24 25 25 24 24 25 24 22 22 22 26 23 24 24 22 22 22 22 22 21 21 21 21 19 19 18 18 19 19 19 17 14 14 14 13 12 13 13 12 13 13 11 10
15 17 13 11 14 14 16 19 20 11 13 13 13 12 9 7 9 8 12 15 10 16 16 19 23 21 17 15 19 21 25 26 22 20 22 24 25 23 23 21 21 25 26 23 22 23 24 22 23 22 24 23 23 23 24 23 23 23 23 23 23 23 22 22 22 21 20 19 19 20 20 18 17 16 15 14 14 14 13 13 12 13 14 15 13 12
16 17 14 13 7 13 14 17 19 15 18 17 23 16 14 9 11 9 12 20 14 16 18 16 14 17 18 17 15 24 27 23 21 22 23 26 28 28 27 24 26 28 26 25 26 25 25 24 24 22 21 23 25 25 24 24 23 25 24 23 25 24 23 22 23 22 20 19 19 19 18 17 16 16 16 15 13 13 13 13 14 13 13 15 14 14
18 16 13 15 13 11 9 8 10 8 11 15 19 16 17 10 10 16 14 18 9 14 19 19 21 18 15 17 20 26 24 18 20 21 24 27 29 28 26 28 31 29 25 24 25 24 23 22 25 23 25 25 24 25 26 25 24 22 23 23 23 23 23 22 22 21 19 19 18 17 17 15 16 15 16 15 12 12 12 11 12 12 13 14 14 14
20 15 14 15 16 11 10 14 15 9 12 12 16 13 12 8 12 15 18 11 10 13 14 18 19 17 17 15 22 25 17 18 20 20 28 28 29 26 26 29 30 29 27 28 29 22 26 26 26 28 27 25 25 26 25 25 24 23 22 22 22 22 22 22 21 21 21 19 18 18 18 16 15 17 15 13 13 12 11 11 12 10 10 11 14 14
14 11 14 11 13 18 13 15 19 11 11 10 13 14 15 15 11 13 13 10 10 12 12 13 11 15 15 18 17 16 14 13 23 25 27 29 28 28 30 29 29 30 25 27 25 25 25 23 22 23 24 23 27 26 26 26 25 23 23 22 22 21 21 22 21 21 20 20 20 18 17 16 15 17 16 13 13 13 11 8 9 12 12 12 13 13
15 16 20 17 15 14 13 18 14 17 8 8 15 16 16 14 9 10 6 6 9 12 14 12 12 15 15 12 16 15 12 17 22 25 26 25 27 32 32 33 32 34 34 30 26 27 28 25 26 26 23 24 24 25 25 25 23 22 22 22 21 22 22 21 21 21 20 19 19 18 17 17 17 16 13 12 13 12 11 9 11 10 11 11 9 9
15 21 16 16 16 18 18 20 13 13 11 8 13 7 10 10 7 6 10 8 10 13 13 11 15 19 17 20 17 14 15 17 18 22 23 25 27 29 29 31 33 32 27 27 28 29 28 27 26 25 24 25 24 24 24 26 24 22 22 22 22 21 21 20 21 21 19 18 19 18 18 18 17 14 12 12 12 12 11 9 10 12 13 11 11 10
12 8 13 10 10 12 11 14 10 6 11 14 13 10 9 7 6 6 7 10 8 10 8 9 9 11 15 15 17 15 15 14 19 22 25 26 27 28 29 32 34 30 32 33 31 29 26 29 27 26 26 25 24 23 24 23 25 22 22 22 21 23 23 22 21 20 19 20 20 18 20 16 15 14 13 11 12 12 10 9 11 13 11 10 10 11
13 11 9 11 11 11 9 11 10 12 12 12 9 9 7 6 8 9 10 9 10 11 8 5 6 10 11 15 17 14 13 14 18 20 22 24 27 26 26 29 29 31 32 30 29 28 31 28 26 28 28 26 25 23 22 22 24 25 23 23 22 23 23 22 21 20 21 21 20 20 22 18 16 15 13 11 11 11 10 12 11 12 11 11 11 11
11 11 11 13 8 9 10 15 10 12 12 7 8 6 6 6 10 8 9 9 8 9 9 9 6 8 8 12 14 12 11 14 16 19 20 21 23 24 27 29 30 33 33 32 30 29 31 32 35 33 30 29 25 24 23 21 23 22 23 23 23 23 23 23 21 20 20 20 21 19 19 18 16 16 14 11 11 11 11 11 10 10 11 10 12 11
10 17 11 12 7 11 10 13 18 15 10 9 7 7 8 7 9 7 8 8 9 7 6 7 5 8 9 10 12 12 13 13 18 19 23 24 23 25 29 27 30 31 30 29 31 30 31 32 33 30 29 27 26 23 24 25 26 28 26 24 25 23 23 21 21 22 22 22 19 19 18 17 14 16 13 13 12 12 11 10 9 9 7 10 11 11
12 10 6 7 13 13 18 16 13 12 10 13 11 9 11 8 8 7 7 8 7 9 8 7 6 7 8 9 10 11 13 14 17 18 20 22 26 27 29 29 27 28 28 28 30 26 30 31 31 29 27 24 23 23 24 24 25 30 26 25 24 23 22 22 19 20 20 20 20 18 16 16 16 15 14 12 10 10 9 8 10 15 13 9 8 12
13 13 12 14 11 9 10 10 16 11 6 10 11 11 7 6 9 8 6 5 7 9 8 8 9 7 8 9 12 12 12 12 15 17 19 23 24 27 28 28 27 26 26 27 28 24 26 26 27 27 26 24 23 24 25 24 25 26 28 27 25 23 22 22 21 20 21 20 18 18 17 17 16 15 14 13 14 15 13 12 16 12 17 10 7 13
14 11 9 6 6 7 11 10 8 9 8 5 7 8 8 10 6 6 5 5 6 8 8 8 9 8 6 7 7 12 12 10 15 17 20 23 23 25 29 30 28 26 28 29 28 27 27 25 25 25 24 25 24 25 24 24 26 26 25 25 25 23 22 22 21 20 20 19 17 18 18 17 17 15 15 14 15 15 16 14 16 16 14 12 9 12
Wind_Speed
4 8 10 15 17 18 15 12 9 9 9 8 8 7 12 10 6 10 12 8 15 11 14 10 14 15 14 13 11 12 9 10 11 11 10 10 9 8 7 6 5 5 5 6 11 12 10 8 7 6 7 7 6 6 8 8 7 7 6 6 6 5 6 6 6 6 7 7 6 5 6 8 6 7 7 6 4 8 9 9 8 8 7 7 7 7
9 9 15 18 13 11 12 11 10 10 16 12 8 9 11 13 10 9 13 12 15 10 11 8 16 10 11 11 11 11 13 12 13 12 12 11 9 7 8 8 6 6 4 7 9 11 11 8 9 8 6 6 9 5 7 8 8 6 6 6 5 4 5 5 6 6 5 3 5 7 7 7 5 6 7 8 8 9 9 9 8 7 7 6 7 6
13 18 21 14 9 8 9 12 12 12 14 14 9 10 9 12 10 11 11 11 15 11 7 18 15 11 10 9 9 9 10 9 10 12 14 14 10 7 7 9 8 7 9 8 10 11 10 10 10 9 7 6 5 6 6 8 8 7 7 6 6 5 6 6 6 6 6 4 4 5 5 7 5 3 7 9 9 9 9 10 9 8 8 7 7 6
13 19 12 9 8 11 11 13 14 14 13 10 10 4 10 10 12 10 15 8 16 10 11 16 16 8 8 6 7 5 8 9 8 10 11 11 12 9 10 10 11 10 9 11 11 11 11 10 10 9 7 7 5 5 6 6 7 6 6 6 6 6 5 6 5 5 6 7 6 6 7 5 6 8 9 10 9 10 11 10 8 8 7 7 6 6
15 1 9 8 11 13 13 12 14 12 11 13 12 9 6 10 14 14 10 5 18 10 22 18 12 6 3 8 3 3 5 9 8 11 11 7 6 7 7 6 9 11 10 10 10 9 10 10 9 8 7 6 5 6 6 5 5 5 6 6 6 6 5 5 5 6 8 8 7 5 3 4 8 8 8 9 9 9 8 8 8 7 7 7 6 6
11 7 13 14 14 16 15 13 16 13 11 10 13 12 10 9 9 14 13 8 10 9 12 21 6 2 3 6 7 3 4 8 8 12 11 11 10 10 10 9 7 6 4 8 10 10 9 9 10 8 8 7 5 5 4 3 4 5 5 5 5 5 5 6 5 6 7 7 8 7 7 7 6 7 7 9 8 8 7 7 6 7 6 6 7 6
7 10 16 19 16 15 16 11 14 14 11 8 10 11 14 16 11 9 16 7 10 12 9 9 11 3 3 7 7 5 7 7 8 10 11 12 11 9 9 8 8 7 4 2 5 6 7 9 10 8 8 7 7 5 5 5 4 3 4 4 5 5 5 5 4 4 6 6 5 5 6 6 7 9 7 7 8 8 7 7 8 7 6 6 6 6
9 13 15 16 14 13 12 14 13 17 12 12 9 8 14 14 13 15 11 10 5 5 12 5 8 9 6 8 8 9 9 9 8 10 12 12 11 10 9 7 8 9 9 9 7 6 8 7 8 9 8 7 7 6 6 5 4 4 4 5 4 3 4 3 4 5 5 7 6 7 7 8 8 9 9 9 8 8 8 8 7 7 7 7 6 6
14 13 17 16 14 12 14 15 12 16 14 9 9 12 9 11 15 15 7 8 10 14 9 3 9 6 3 4 8 11 9 9 10 10 13 13 12 11 11 10 9 8 9 11 11 10 9 7 8 8 8 8 8 6 6 5 3 4 4 4 4 4 4 4 4 6 5 6 7 8 9 9 8 9 8 7 7 8 8 8 6 8 7 7 7 6
10 10 14 13 12 13 12 13 13 13 14 13 12 9 10 12 9 6 3 3 5 11 8 8 11 6 3 6 8 6 6 10 10 11 12 15 14 12 11 11 10 8 8 8 12 14 12 8 8 8 9 10 8 7 6 5 4 4 4 5 6 5 4 4 4 4 4 5 7 8 9 11 9 7 7 7 8 8 7 9 8 7 7 6 6 5
9 11 9 12 14 11 9 11 17 14 15 8 14 10 12 12 5 3 2 5 2 6 10 16 13 10 4 9 13 11 12 15 10 9 10 14 12 11 11 13 11 10 9 10 11 14 14 11 9 9 9 10 9 7 7 6 5 4 4 6 6 4 5 6 6 6 6 6 6 8 9 10 10 9 8 8 7 7 8 8 7 6 6 5 5 5
12 14 12 9 12 10 9 12 15 14 8 13 8 11 6 5 2 3 2 1 8 8 7 11 8 12 7 7 9 14 11 14 17 18 16 17 17 14 11 11 11 11 10 11 10 14 15 14 11 9 10 10 10 9 7 5 4 4 4 5 8 6 6 6 6 7 7 7 7 7 8 8 8 8 7 8 8 8 9 7 7 6 6 5 5 5
12 15 11 11 12 16 14 11 12 14 10 11 11 10 7 2 3 6 1 4 4 4 3 5 5 2 6 10 17 15 11 17 16 17 20 20 18 15 13 13 12 10 11 11 11 13 14 13 13 12 10 10 10 8 8 8 6 5 6 7 9 7 6 6 6 7 7 7 7 7 6 6 6 7 8 8 8 8 7 7 7 7 6 6 6 5
7 13 17 11 12 13 11 12 10 11 11 13 15 7 7 5 8 5 2 2 2 4 3 8 5 5 2 2 20 18 16 20 18 17 20 21 20 17 15 13 11 10 11 11 10 11 13 12 12 12 10 10 9 9 8 8 7 6 7 7 9 8 6 6 7 7 8 7 7 8 8 8 8 9 9 8 9 8 7 7 7 7 6 6 4 4
7 13 15 13 9 14 13 12 12 10 12 15 10 8 4 4 4 5 2 3 4 2 1 2 3 2 4 5 20 23 18 14 12 16 16 16 16 15 13 11 10 11 9 12 11 11 12 12 12 12 11 10 10 10 8 6 7 7 7 8 9 8 7 7 7 7 8 8 8 8 8 8 8 8 8 8 8 8 9 8 8 7 6 6 4 5
7 3 10 16 6 18 16 13 10 10 5 12 4 4 4 6 6 5 3 2 1 1 1 1 3 1 1 5 4 9 14 16 18 19 18 16 14 14 13 13 13 11 11 12 12 12 12 12 11 11 10 10 10 11 8 8 7 7 7 8 8 8 7 7 7 7 7 8 8 8 9 9 9 8 8 8 8 8 8 8 8 7 5 5 4 4
8 5 10 15 10 22 17 10 10 8 9 11 7 7 7 4 7 4 1 2 4 3 3 2 4 3 2 8 9 13 15 17 19 19 18 17 17 16 15 15 14 13 12 12 13 12 14 13 11 11 11 10 10 9 9 9 7 7 8 9 10 9 8 8 7 7 7 7 8 8 8 8 9 9 9 9 9 9 8 8 7 6 4 4 4 4
7 4 11 16 12 16 21 13 13 7 4 5 7 6 3 4 2 7 3 1 3 4 4 5 6 4 5 2 1 13 15 16 18 19 19 19 19 17 15 15 15 15 13 13 14 13 14 13 14 12 10 10 10 9 10 9 7 7 7 9 10 9 9 7 7 7 7 8 8 9 9 9 9 9 9 8 8 7 7 6 5 4 5 4 4 3
3 2 11 15 11 4 2 2 9 7 5 6 8 4 6 7 7 2 5 5 6 5 1 3 10 6 7 8 6 12 16 17 17 18 18 19 18 17 15 16 15 15 14 14 14 13 12 12 13 12 12 11 9 9 11 9 8 8 7 8 9 9 8 7 6 6 7 7 6 6 8 8 8 7 7 7 8 7 6 6 5 5 4 4 4 4
4 2 0 3 8 3 2 4 7 5 4 6 5 9 6 3 3 3 4 3 8 2 3 3 10 3 4 12 16 17 17 20 18 17 20 21 19 17 17 17 17 17 15 14 14 12 12 13 14 14 14 12 12 12 11 11 9 8 8 9 8 8 8 7 7 6 7 6 6 7 7 7 7 8 8 8 7 7 6 6 5 5 5 4 4 5
3 1 1 2 3 2 3 4 5 6 5 9 5 4 5 1 3 5 1 5 6 3 6 2 3 2 6 13 19 17 20 21 22 19 17 17 17 19 20 19 17 16 15 15 15 14 13 14 13 13 11 12 12 11 11 10 10 9 9 9 8 9 8 7 6 6 5 5 7 8 8 8 7 7 7 7 6 6 5 5 5 4 4 5 6 6
2 4 5 0 1 2 5 3 4 5 7 3 4 3 6 6 2 3 3 0 2 4 3 4 5 3 3 12 15 18 20 21 22 21 18 17 19 18 17 16 17 16 15 16 15 15 14 13 13 12 12 12 12 11 11 10 10 10 9 8 8 8 7 8 7 5 5 6 7 8 8 8 7 7 7 7 7 7 6 5 5 4 5 6 6 7
4 1 6 6 6 9 9 7 8 9 13 5 7 4 3 3 3 2 3 5 1 1 4 6 3 3 3 4 12 17 18 21 20 20 18 17 19 18 16 15 14 16 17 16 16 15 15 14 13 13 14 14 13 12 12 10 10 9 9 9 7 8 7 7 6 6 7 8 8 8 8 7 7 6 6 7 6 6 6 5 5 6 7 6 6 7
3 1 5 3 3 4 8 6 13 12 4 6 5 4 7 6 5 5 3 5 4 2 3 1 4 2 5 0 8 17 19 19 19 21 20 17 15 16 17 17 17 16 15 15 14 13 15 14 13 13 13 13 12 12 12 11 10 10 9 8 8 9 9 7 6 7 8 8 8 8 8 7 6 7 7 6 5 6 5 5 4 5 6 6 7 9
0 3 7 8 2 2 8 3 4 6 4 2 3 3 7 8 6 5 1 2 5 3 8 6 3 2 1 7 11 14 14 15 16 15 20 18 14 16 17 16 15 16 16 15 16 15 15 15 15 14 14 13 12 11 11 12 12 11 9 8 9 9 8 7 7 8 8 8 8 7 7 7 6 7 7 6 6 6 6 6 6 5 6 7 7 8
3 2 3 6 8 6 10 10 11 8 8 2 2 3 4 2 7 8 6 1 3 3 6 4 1 2 1 4 16 18 18 15 15 16 15 20 20 17 16 16 16 16 16 16 15 15 17 16 14 14 13 13 12 12 11 12 12 11 10 10 9 9 9 9 8 8 8 7 8 7 8 7 7 7 6 6 6 6 6 6 6 6 6 8 9 9
1 2 1 2 5 4 3 1 1 0 1 4 5 4 3 6 2 3 7 5 6 2 1 3 9 4 5 9 11 14 16 17 15 15 16 14 15 17 17 16 16 16 17 18 16 15 15 14 16 15 14 13 13 11 11 13 13 12 11 11 10 9 9 10 9 8 8 7 7 8 8 7 7 7 6 6 6 6 5 5 5 6 7 7 9 9
0 2 3 1 1 3 6 4 4 5 3 3 3 3 3 6 4 2 5 6 6 5 1 1 9 8 3 12 12 13 12 14 15 15 14 14 15 16 16 16 16 15 15 15 15 16 17 17 15 15 14 14 13 11 11 10 12 12 13 12 10 10 10 9 10 9 8 8 8 8 8 7 6 6 6 5 6 7 6 7 6 6 6 7 8 9
3 3 2 2 4 5 5 7 8 9 5 4 4 4 5 8 4 4 2 6 7 5 2 4 9 12 6 9 16 12 13 17 18 17 16 16 16 15 17 18 18 17 18 18 17 17 17 17 15 15 15 15 14 13 12 11 12 12 11 11 10 11 11 11 10 9 9 9 8 8 7 7 6 6 6 7 7 7 7 7 6 6 6 7 8 8
2 3 2 0 4 8 12 12 13 14 8 5 7 5 7 9 5 5 1 1 5 4 9 9 5 10 6 5 6 15 17 14 12 13 13 16 18 19 19 18 19 19 19 20 19 18 17 17 16 15 15 15 15 15 12 12 12 12 13 12 12 12 11 11 10 10 10 9 8 8 8 8 6 6 7 7 7 7 7 6 6 6 7 8 9 9
5 3 2 2 2 3 3 1 20 18 13 7 10 7 5 7 5 4 3 2 5 1 8 11 8 6 3 8 10 10 13 13 14 17 18 16 17 19 19 19 19 19 18 18 18 17 17 17 17 17 16 16 17 15 14 13 13 12 12 12 12 12 11 11 11 10 10 10 9 9 8 8 7 8 8 7 7 7 7 7 7 7 6 7 9 10
4 2 1 2 1 4 3 8 3 5 4 7 7 9 6 6 4 1 4 3 2 3 7 7 7 7 2 6 14 16 16 18 17 15 14 13 16 17 17 17 17 17 17 18 18 17 18 18 18 18 18 17 16 15 15 14 13 13 14 14 13 12 11 11 11 11 10 10 10 9 9 8 8 8 8 8 8 8 8 7 7 6 5 6 8 8
2 1 2 2 5 2 6 5 5 8 3 4 4 5 5 1 2 1 3 4 4 5 5 5 5 6 10 11 12 12 16 15 16 16 14 14 16 17 18 18 18 17 17 17 18 18 18 18 18 18 17 16 15 14 15 15 15 14 15 14 13 12 11 12 11 11 11 10 10 10 9 9 10 9 8 8 7 7 7 7 6 6 6 6 6 7
2 2 1 1 1 1 4 4 5 5 2 3 2 4 1 1 4 2 1 3 1 5 3 6 3 3 15 13 18 13 15 16 18 17 20 20 17 16 17 18 19 19 17 17 17 17 17 15 14 15 16 16 15 14 14 14 13 13 14 13 13 13 12 12 12 11 11 10 10 10 10 10 9 9 9 9 8 8 8 8 8 7 6 6 6 7
1 3 1 0 2 2 1 2 4 1 1 3 4 2 6 9 10 1 3 5 2 5 5 4 3 3 7 12 13 17 16 13 12 16 13 17 21 19 19 18 18 19 19 18 17 16 16 17 16 15 13 14 14 14 14 13 11 12 13 13 13 13 13 12 12 11 11 11 11 11 10 9 10 11 10 10 8 8 8 8 8 8 7 7 6 5
0 1 1 2 1 3 2 2 1 2 4 3 4 1 2 6 4 6 6 4 1 6 4 1 2 1 6 11 11 11 12 14 12 12 15 14 15 17 17 17 18 18 18 17 18 17 16 17 17 16 14 12 12 13 14 14 13 14 13 13 13 13 12 12 12 11 10 11 11 11 10 11 11 11 9 8 8 9 8 7 7 8 7 6 6 4
2 1 0 3 1 2 2 3 2 3 4 7 5 2 2 1 2 4 0 3 2 1 4 7 5 3 1 7 7 7 11 12 11 6 9 15 14 15 19 18 18 18 16 15 15 16 15 15 16 15 14 14 14 14 14 13 13 13 13 13 12 13 12 12 12 11 11 11 11 11 11 12 12 10 8 8 9 8 8 8 8 8 7 8 7 6
2 2 2 3 2 2 2 2 2 1 1 6 7 5 0 2 2 4 5 3 4 2 0 2 7 8 6 6 7 12 12 12 8 7 11 13 14 13 10 11 13 13 14 14 12 13 14 14 15 14 15 15 15 15 14 14 13 14 14 13 13 13 12 12 11 11 11 11 11 12 12 11 10 9 9 9 9 8 8 8 7 8 8 9 8 7
2 2 3 6 0 1 1 1 2 3 5 9 8 5 1 6 7 6 2 4 4 6 4 1 2 5 8 8 8 11 11 10 10 11 12 15 13 14 13 12 14 15 15 16 15 15 14 15 16 14 14 15 17 16 16 15 15 14 14 13 13 12 13 12 12 12 11 11 12 12 11 9 9 9 9 9 8 8 8 8 8 8 8 8 8 8
4 0 1 2 2 0 1 1 0 0 0 4 5 4 1 5 6 8 1 4 4 8 5 6 1 5 6 5 11 11 12 9 9 10 10 15 16 15 16 15 16 16 15 15 14 15 14 14 15 15 16 16 16 16 18 16 14 14 13 13 12 13 13 13 12 10 10 11 11 10 9 9 10 9 10 9 8 7 7 7 7 7 8 8 8 8
3 1 3 4 2 3 1 1 2 2 4 2 6 5 5 4 7 5 5 3 4 6 8 5 5 3 6 7 12 11 9 9 9 9 12 12 14 13 12 14 17 18 18 17 15 16 15 15 15 15 16 15 16 16 16 15 14 14 13 13 12 13 12 11 10 11 11 10 10 10 10 9 9 10 9 8 8 7 6 6 7 6 7 7 8 8
1 1 0 1 1 2 2 2 1 1 3 1 3 6 4 7 2 3 4 2 1 4 7 6 5 6 2 12 7 9 6 6 14 14 16 17 17 14 12 13 14 13 13 15 17 16 15 14 13 15 15 14 17 16 15 15 15 14 13 12 12 11 10 11 11 11 10 10 11 10 10 9 9 10 9 8 7 8 7 5 6 6 7 7 8 8
3 2 2 3 2 0 1 0 2 3 2 1 4 5 4 5 3 3 2 3 3 4 4 4 4 4 9 4 4 6 6 7 13 16 17 15 15 15 17 17 18 18 17 16 16 15 16 14 15 16 15 14 15 15 15 16 16 14 12 12 12 11 12 11 10 10 10 10 11 10 10 10 11 9 7 7 8 7 7 6 7 6 7 7 6 6
1 2 0 1 2 2 1 1 1 1 2 3 4 2 0 2 3 2 2 3 3 3 4 4 5 4 6 9 5 6 7 9 9 12 12 12 12 13 14 15 15 15 15 15 16 16 17 15 14 14 13 14 15 15 15 16 15 13 13 13 12 12 12 11 10 11 11 10 10 10 10 11 10 9 7 8 7 7 7 5 6 7 7 7 7 6
3 2 2 3 2 2 1 2 3 1 2 4 5 4 3 2 3 2 2 3 4 4 2 3 4 5 6 7 6 7 7 9 12 15 15 14 15 16 17 17 18 18 17 17 15 16 16 16 16 14 14 13 15 14 14 14 15 15 15 13 13 14 13 12 12 11 11 11 10 10 10 10 9 9 7 7 8 7 7 5 7 7 6 6 5 6
1 3 3 4 2 2 1 3 4 5 6 4 4 4 4 5 6 6 6 4 5 4 4 3 4 6 5 5 7 4 7 9 11 8 11 13 13 12 13 13 13 13 13 13 13 14 14 14 16 16 15 14 14 13 13 13 14 16 14 13 13 13 12 13 12 11 12 11 11 11 11 10 9 8 7 7 7 6 6 7 7 7 7 7 6 6
2 3 2 2 1 4 1 4 4 5 2 4 3 3 3 4 5 5 5 5 4 6 6 5 4 5 5 5 6 6 7 8 10 10 11 11 12 14 15 15 15 16 17 16 15 14 13 14 15 16 16 15 13 12 12 14 13 13 12 13 13 13 13 12 12 12 12 12 11 10 10 11 9 8 7 7 7 6 6 6 6 6 6 7 8 7
0 4 2 1 1 3 3 2 2 3 3 3 1 4 3 5 6 4 4 2 2 4 4 5 3 5 5 5 5 6 6 8 12 11 10 10 11 12 12 14 15 13 13 15 14 14 13 14 14 15 15 15 13 12 12 12 13 13 12 13 12 12 12 12 12 13 12 13 11 10 10 10 12 11 7 7 7 7 6 6 5 5 4 7 7 6
2 3 2 3 4 3 3 4 3 4 5 6 6 4 5 3 3 3 3 3 4 3 4 5 4 4 5 5 6 6 4 5 9 11 11 9 10 10 12 13 14 15 15 15 14 14 14 14 14 15 15 13 12 11 12 12 12 12 13 12 12 12 12 12 12 12 12 11 10 9 9 9 9 8 8 7 5 3 2 4 6 6 3 1 1 7
1 3 3 4 5 2 1 1 1 3 1 2 4 5 5 4 6 4 4 3 2 4 5 5 5 4 5 5 7 6 3 3 7 8 10 10 11 12 13 14 14 15 15 15 14 15 15 15 16 16 14 13 12 12 12 12 12 12 12 12 11 12 12 12 12 12 12 11 10 9 9 8 8 8 7 6 6 6 6 9 7 4 9 3 2 9
2 0 1 2 3 2 2 1 1 4 3 1 2 4 5 5 4 3 4 4 3 2 4 4 4 5 3 2 5 7 3 3 6 9 10 10 11 13 16 17 15 14 14 15 15 14 15 14 15 16 16 14 12 12 12 12 12 12 12 12 12 12 13 13 11 11 10 10 9 10 10 9 9 8 7 7 7 7 8 5 7 13 12 7 6 10
Wind_Direction
182 211 214 214 210 209 215 219 234 229 244 229 207 184 205 221 226 206 215 205 189 182 195 196 130 141 143 144 149 142 133 123 131 135 133 136 144 157 165 134 126 115 147 157 132 130 133 130 132 105 86 104 106 114 117 120 135 148 156 152 140 145 137 134 133 132 133 126 120 101 103 111 129 120 115 110 117 89 80 74 70 61 56 52 48 41
215 222 230 222 215 209 209 217 232 230 238 239 214 198 198 213 228 216 211 202 187 184 192 133 126 122 135 142 147 138 138 149 148 144 145 143 156 160 152 133 143 122 118 138 131 129 133 136 134 116 111 138 138 154 138 142 153 157 151 141 142 146 141 138 136 137 137 152 143 130 129 122 136 134 114 99 84 82 78 74 68 63 57 51 49 46
206 220 221 213 209 208 213 215 229 233 236 238 233 197 197 207 226 253 239 198 182 176 157 127 126 133 130 141 145 145 146 155 153 153 154 148 158 157 140 141 145 135 146 145 128 135 142 137 130 128 139 151 153 158 150 148 153 150 139 149 153 155 143 136 139 141 141 132 119 122 135 138 135 103 96 93 92 86 78 69 64 62 55 50 44 37
205 230 214 199 206 210 216 214 217 236 246 241 235 224 204 188 188 228 245 225 170 177 133 126 111 118 121 121 151 148 145 156 148 141 147 153 156 157 157 154 150 152 150 154 146 144 138 136 131 135 137 143 160 152 142 148 150 148 150 157 150 148 142 136 143 139 124 115 111 104 131 142 114 111 95 90 86 78 75 69 69 61 58 51 47 36
211 117 177 208 211 211 217 207 211 223 237 239 236 222 236 197 192 209 234 194 167 102 119 100 85 80 129 139 154 164 118 133 131 116 126 125 120 127 128 121 148 158 158 149 145 146 136 133 128 124 123 140 154 150 155 162 158 148 149 152 146 138 130 130 136 132 123 118 114 118 104 113 99 88 89 85 75 78 79 78 65 64 59 54 47 38
219 183 165 212 218 211 214 202 209 210 234 241 238 230 233 250 206 200 228 134 144 121 142 128 66 166 206 175 169 181 122 135 139 131 135 136 134 145 148 144 129 125 115 143 150 149 131 126 118 123 136 150 159 162 153 137 140 142 141 138 123 112 117 128 134 130 125 129 130 134 132 114 99 94 92 92 95 92 84 82 82 66 57 57 52 45
213 188 183 202 214 209 206 217 208 212 228 228 235 221 235 245 264 220 214 127 167 150 211 155 136 174 200 191 188 177 155 156 141 138 137 137 144 150 146 134 117 102 90 106 122 118 112 118 127 137 148 154 157 133 124 115 120 122 128 124 121 122 123 126 129 121 116 108 103 109 108 106 107 103 87 89 90 98 100 92 77 69 51 47 53 46
209 198 195 198 209 204 199 215 213 207 217 233 229 221 225 240 246 257 233 177 187 120 180 169 126 138 176 216 188 172 163 156 153 147 142 144 147 148 147 136 127 157 163 143 138 119 107 120 131 143 143 149 130 122 119 114 122 131 124 119 116 115 118 122 128 108 109 115 116 111 104 103 100 102 106 98 94 94 98 89 87 77 59 46 42 41
201 200 195 192 198 203 208 210 209 205 213 234 235 231 235 225 236 248 235 177 150 141 196 177 106 85 171 196 155 167 157 164 171 163 145 144 146 146 152 143 150 147 146 149 146 132 128 128 129 130 129 129 118 125 128 132 133 109 102 101 105 112 121 130 118 114 116 121 123 118 115 109 105 106 108 106 104 101 100 98 89 82 69 54 40 37
200 225 191 201 195 209 209 207 222 202 210 227 240 242 247 244 236 241 235 225 140 130 190 198 162 118 162 165 151 175 171 181 175 164 145 145 150 155 157 149 145 147 139 138 141 136 129 123 121 119 118 120 125 132 127 117 112 112 118 120 118 115 121 122 114 122 130 125 117 114 115 114 115 116 112 110 105 99 95 88 81 79 76 64 49 35
189 221 213 203 202 207 198 205 218 219 217 207 233 251 243 241 245 254 266 192 109 190 198 191 181 141 155 189 172 164 203 184 151 150 143 141 148 160 158 155 158 156 154 154 148 137 129 127 125 126 122 122 129 130 127 122 124 132 130 128 111 104 95 92 92 93 96 101 105 110 112 115 119 119 115 111 106 101 93 93 90 88 90 81 67 53
194 194 220 209 201 197 208 205 216 224 207 202 216 232 242 284 303 305 270 67 166 224 199 184 177 166 141 201 207 201 180 159 164 165 148 152 158 165 161 159 158 165 160 154 154 136 130 130 133 130 131 134 135 132 128 124 115 110 112 114 105 92 90 88 87 84 84 85 91 97 104 109 116 120 121 118 120 112 109 110 102 92 79 63 52 48
207 197 208 209 194 197 194 205 207 219 224 210 213 223 179 200 173 238 45 196 223 201 217 169 190 194 219 175 186 200 170 176 172 161 157 157 160 165 163 163 160 169 155 153 151 137 135 137 141 140 139 138 139 136 131 128 124 116 105 103 100 91 81 81 85 87 84 82 80 81 89 94 93 89 88 86 88 100 103 98 95 88 81 67 55 40
221 199 199 204 182 207 193 193 186 215 212 213 212 186 174 164 191 216 214 146 357 317 3 154 159 237 178 146 176 180 183 179 168 156 152 155 161 165 163 164 159 161 156 147 140 138 136 137 140 141 142 142 138 136 135 133 125 117 110 104 100 98 89 84 80 81 80 80 76 71 71 74 77 78 83 86 92 93 96 97 92 88 87 79 72 56
159 194 192 195 187 186 211 202 192 206 189 214 211 178 152 164 162 192 157 154 191 188 261 83 69 252 161 246 180 181 175 154 131 132 139 147 155 156 154 149 145 155 151 138 140 142 141 140 142 144 146 144 142 140 138 131 126 123 115 109 108 102 89 80 78 74 70 61 62 69 72 75 80 83 84 86 86 89 90 87 89 86 83 85 75 67
217 235 186 204 177 183 207 213 193 187 176 222 185 178 231 233 150 138 193 104 107 118 67 128 147 230 164 300 161 119 116 120 125 131 135 147 152 148 145 152 160 159 146 143 142 142 141 140 144 141 145 147 145 144 137 131 131 122 117 109 104 102 95 87 80 77 76 73 70 70 80 82 83 83 81 80 83 84 87 88 91 93 94 98 92 77
194 215 171 203 203 182 214 209 220 164 182 198 162 196 204 194 130 100 72 108 96 68 264 167 23 12 347 41 103 121 114 124 132 136 141 149 152 150 155 160 161 154 148 146 146 147 143 144 147 144 146 146 147 145 135 138 133 125 114 107 104 98 89 83 82 82 79 80 77 73 76 79 80 80 80 83 86 87 85 89 92 99 107 99 95 90
141 229 175 198 193 185 199 208 226 203 161 155 189 217 219 219 109 125 159 134 148 143 243 119 143 177 124 172 248 132 126 133 137 147 150 151 151 156 160 158 155 153 151 147 144 146 145 148 146 145 146 146 146 135 133 134 126 120 115 110 109 103 99 94 91 88 86 87 86 84 82 82 87 87 89 92 91 88 90 88 91 91 86 92 97 98
195 79 197 205 192 153 88 308 254 297 215 144 206 156 209 173 205 270 108 166 172 185 263 173 156 176 166 156 155 152 145 147 149 151 147 153 158 155 153 151 150 145 146 149 146 145 146 145 145 145 146 149 141 128 132 126 120 117 109 108 109 109 108 108 99 90 84 84 92 96 99 98 91 85 86 86 87 89 93 93 92 92 94 83 82 81
202 135 255 166 178 136 165 136 193 247 284 228 158 204 185 116 159 141 176 165 121 217 121 283 153 212 201 160 166 168 156 155 152 156 159 162 158 152 152 153 152 152 155 150 144 144 144 145 145 147 151 152 139 137 134 128 124 115 112 112 111 108 107 100 92 91 97 96 92 97 96 91 94 98 99 99 99 99 99 100 97 91 81 84 76 72
161 109 161 258 175 93 232 177 188 169 182 216 206 211 178 165 185 131 193 163 160 164 170 183 224 252 200 169 168 162 153 160 160 163 160 158 155 156 155 154 155 154 152 149 144 144 146 145 148 152 149 138 138 136 133 133 127 120 116 114 115 117 117 117 120 116 116 102 107 105 99 98 96 95 96 98 98 99 98 98 95 96 97 76 70 73
61 62 158 164 345 249 238 211 208 203 228 204 151 212 164 146 91 151 274 174 154 118 190 179 237 276 221 166 164 153 160 160 163 157 157 155 155 156 155 154 152 149 149 148 147 147 150 148 150 147 139 141 141 139 135 133 127 124 122 120 119 117 122 128 131 129 116 111 105 103 102 101 99 99 100 100 100 98 97 93 90 88 77 79 74 71
137 163 103 166 207 208 222 216 221 216 237 198 167 237 174 126 117 114 132 235 172 228 148 149 150 272 259 220 150 153 157 160 158 153 155 153 154 154 152 149 147 148 149 149 148 151 150 150 150 147 147 147 143 137 132 133 132 131 128 127 129 130 134 132 127 116 118 111 109 107 105 104 105 105 103 105 106 109 108 101 92 85 86 81 80 74
65 82 139 177 215 226 218 227 215 235 227 193 207 195 181 215 159 161 172 185 172 187 181 85 163 261 285 96 155 155 157 155 155 155 150 148 148 147 146 147 146 147 148 145 147 154 148 149 149 148 151 147 144 141 138 136 136 134 137 139 138 141 142 136 124 121 116 112 109 110 105 108 110 107 108 106 108 106 107 107 104 99 90 92 89 86
136 263 124 156 143 150 184 313 302 255 256 228 168 208 177 193 194 193 56 71 160 225 151 125 178 271 289 107 136 123 136 143 154 153 145 145 145 144 146 147 147 148 147 150 153 156 148 150 153 155 154 151 148 146 139 142 144 144 145 146 148 148 147 134 127 123 119 117 117 113 114 114 111 112 111 112 108 106 103 100 100 94 90 81 80 82
220 230 94 137 160 165 173 189 201 216 220 262 194 161 192 204 193 191 222 93 143 259 141 113 173 269 351 99 141 148 147 149 149 147 151 150 150 149 147 148 148 149 152 152 155 156 152 153 154 155 156 154 153 153 146 148 150 150 151 153 153 152 144 135 127 125 123 124 123 123 119 118 116 116 118 115 111 109 107 107 105 102 96 93 91 89
303 310 95 137 145 191 233 321 287 86 84 245 220 178 194 237 192 142 126 102 182 219 98 209 156 164 132 121 155 153 151 146 140 141 148 151 149 149 148 148 151 153 153 154 156 157 148 151 157 157 156 155 155 158 153 156 155 157 153 154 155 150 138 135 131 129 129 126 127 126 126 125 125 125 120 117 115 106 98 95 97 101 108 106 102 99
37 321 295 18 296 214 170 190 187 200 164 233 196 226 243 228 210 105 158 193 182 88 264 237 138 121 184 127 154 153 155 145 146 152 149 145 146 148 149 148 149 149 150 149 152 155 154 154 155 157 158 157 158 160 157 150 154 151 150 153 148 140 135 135 133 134 130 131 130 131 132 130 131 125 121 116 108 102 99 93 89 90 95 105 107 103
152 228 273 36 298 281 229 212 173 202 207 193 223 192 224 242 205 169 199 219 116 136 174 215 153 147 208 157 167 163 165 157 161 158 155 148 142 142 146 152 154 154 152 152 156 157 156 157 159 160 161 160 160 161 158 143 146 141 141 142 142 139 139 136 136 137 136 134 136 139 135 131 126 122 117 112 108 105 101 99 95 89 85 88 95 98
98 258 303 255 293 295 274 229 180 187 194 174 224 217 212 229 186 144 179 286 142 155 147 160 158 166 179 200 138 162 165 152 138 133 134 145 153 153 152 154 156 157 159 159 160 161 160 158 160 163 164 163 162 162 156 147 146 146 145 145 145 143 142 140 142 143 140 140 142 139 135 132 125 119 115 110 109 109 107 104 97 92 91 91 97 100
100 276 336 5 305 268 287 94 169 177 174 189 213 231 209 205 220 166 172 102 54 62 128 145 135 171 260 118 110 124 123 111 129 144 152 151 150 153 157 160 161 163 162 159 159 160 162 161 162 164 166 167 166 164 156 152 149 141 140 144 146 146 147 144 145 144 141 143 144 140 136 131 127 121 117 116 110 104 102 100 98 97 97 102 107 107
91 255 8 280 169 296 354 31 18 31 174 182 198 224 205 177 211 205 174 196 116 159 125 125 120 173 146 115 123 131 130 136 143 145 144 154 155 153 156 160 160 163 164 165 164 162 163 166 166 168 168 169 167 160 154 151 150 143 147 149 150 150 148 146 146 144 143 145 145 142 139 134 129 124 124 119 117 116 115 112 108 106 102 99 103 112
126 91 15 349 63 302 322 15 5 13 43 193 238 226 175 154 138 183 152 129 163 144 112 132 201 226 134 137 120 133 140 144 146 152 154 152 158 159 160 162 164 166 167 167 168 168 167 169 170 169 169 167 164 156 154 151 151 151 153 153 152 150 148 148 147 145 146 151 150 145 139 134 133 131 128 126 125 122 121 118 115 109 105 103 107 110
117 106 279 64 119 264 307 345 20 51 152 228 228 271 79 158 184 142 218 151 189 120 197 175 157 100 131 142 139 155 144 163 167 173 160 158 163 169 168 166 165 167 167 170 172 170 168 166 169 173 169 165 160 154 153 154 152 150 150 149 150 150 149 148 149 150 152 154 151 144 139 138 134 131 131 131 130 128 124 122 121 119 112 104 94 103
23 45 308 249 105 258 297 33 43 35 182 243 264 284 91 72 55 14 227 161 115 100 90 45 35 126 151 159 158 164 171 162 150 150 168 169 163 165 167 167 167 170 171 169 170 172 170 168 166 166 164 164 157 150 149 150 144 146 150 153 152 151 150 151 151 155 157 155 149 142 141 134 131 133 137 141 140 134 133 134 134 129 126 119 117 115
78 57 358 329 141 28 48 58 93 243 239 276 314 350 82 84 73 54 5 325 188 148 122 178 163 286 122 167 165 163 146 147 152 160 161 167 167 164 163 169 172 170 171 174 170 171 168 167 165 163 161 154 147 146 148 150 150 151 153 153 151 151 152 152 155 158 158 153 149 145 140 137 137 140 147 144 138 137 136 133 129 127 123 117 116 111
145 101 85 298 81 138 182 123 178 305 341 342 9 358 53 90 87 119 207 268 317 338 175 181 214 243 77 149 155 128 131 127 139 160 168 166 173 174 170 171 169 173 170 167 167 167 165 162 162 160 154 154 152 150 149 150 152 151 151 153 153 153 154 156 159 160 157 153 148 143 142 142 144 150 150 143 139 138 137 133 130 128 126 121 124 116
124 186 221 100 294 113 115 71 18 29 252 283 256 270 269 149 138 155 102 305 306 346 62 157 186 181 213 135 143 133 126 121 143 184 186 178 170 166 168 159 158 154 155 157 159 159 160 161 160 158 156 153 153 150 150 154 151 152 154 155 156 155 158 159 160 159 155 152 148 144 145 148 150 150 144 140 140 141 141 139 138 140 137 135 135 132
209 174 97 134 231 70 84 119 196 160 236 215 234 256 331 69 87 87 71 291 281 359 340 130 213 220 190 161 157 135 127 151 186 194 186 170 167 164 154 153 155 155 156 158 159 161 160 161 160 155 153 152 153 151 150 152 151 153 157 159 159 159 160 161 160 160 155 151 147 146 149 149 146 143 140 139 145 145 145 147 152 154 145 145 143 147
204 257 69 352 332 233 136 124 181 229 222 267 202 182 153 63 59 63 135 268 286 342 356 3 237 193 232 178 150 159 156 168 196 212 177 163 163 158 156 157 156 155 156 158 158 158 156 156 155 155 155 156 153 150 150 151 154 156 159 161 162 163 164 162 160 153 149 147 147 148 147 146 142 142 142 145 147 146 149 153 148 153 150 151 149 153
202 339 113 202 209 301 245 231 76 315 292 287 135 112 81 74 68 88 191 236 289 344 342 350 344 227 159 146 158 175 203 186 175 148 147 139 139 153 157 156 157 156 156 158 158 155 156 162 161 157 156 153 149 151 151 151 152 157 164 166 165 167 163 156 150 149 150 149 147 146 144 141 142 142 144 146 147 147 148 152 156 153 144 145 151 151
169 102 255 122 357 253 232 118 202 219 238 276 59 101 101 67 81 203 230 221 267 319 338 356 20 16 136 157 169 162 178 163 141 139 143 155 157 153 141 141 141 146 151 153 153 155 154 155 155 153 155 154 152 152 152 151 157 163 166 166 166 161 152 150 150 150 150 149 147 144 141 139 139 140 144 147 144 146 157 163 143 140 143 140 145 151
204 137 211 174 232 239 41 87 92 120 285 320 95 45 39 105 225 219 302 327 43 26 20 356 41 46 86 66 92 127 129 126 145 151 153 145 143 145 144 146 149 152 153 151 156 156 151 153 156 158 154 153 152 153 153 156 160 164 164 166 161 153 152 152 152 152 150 147 144 143 141 141 142 143 145 147 147 148 158 153 137 136 133 135 140 155
249 96 236 215 171 170 136 149 178 217 245 332 94 158 236 165 186 152 106 14 332 45 30 29 42 65 89 114 118 112 122 118 112 125 132 140 139 138 140 142 145 148 152 154 153 154 153 152 155 154 154 154 154 155 157 158 161 163 165 163 156 153 154 155 155 151 146 144 143 140 141 143 142 141 143 146 146 149 154 150 141 141 148 154 158 170
301 134 169 127 312 112 180 198 245 271 10 46 87 107 103 46 50 74 109 69 44 348 37 78 65 51 75 100 101 106 103 127 137 143 142 151 149 148 150 152 154 155 155 154 153 153 154 155 156 153 155 158 157 158 158 161 161 163 164 162 156 159 160 158 154 148 145 144 144 143 144 141 141 142 146 149 147 153 156 151 149 151 167 160 167 167
349 142 185 83 5 34 69 143 125 35 356 18 62 89 81 45 20 46 51 38 2 347 10 66 116 97 78 86 100 73 122 135 132 134 137 143 145 143 137 136 141 143 142 142 145 152 152 152 154 156 157 160 160 158 160 162 163 164 166 161 161 160 158 155 149 146 146 146 145 146 144 141 142 144 148 148 150 156 162 160 158 166 178 170 181 179
342 356 59 91 186 77 40 346 52 126 182 298 78 49 63 75 72 59 46 32 4 357 1 18 112 121 113 92 100 116 119 123 125 133 139 141 143 147 147 147 149 149 150 150 153 149 150 156 159 162 161 163 165 164 163 163 164 165 161 162 161 158 154 152 147 146 145 146 147 147 146 144 147 149 151 152 157 163 174 171 173 179 177 171 175 162
342 335 59 323 134 124 179 188 146 67 58 6 40 63 27 76 74 69 88 103 13 351 4 4 47 103 105 104 110 113 129 124 134 142 146 146 147 150 143 143 145 143 147 146 150 152 151 159 163 164 165 166 169 167 165 166 166 167 164 163 159 154 151 149 150 148 150 150 150 150 150 148 151 152 157 165 161 167 178 186 176 171 168 180 171 150
229 326 85 332 70 44 36 17 10 45 38 30 10 38 82 74 76 59 38 60 63 25 348 360 38 95 99 131 108 98 96 111 142 146 144 142 141 144 141 147 148 147 147 149 155 156 158 161 162 167 169 171 171 169 168 167 167 166 163 160 155 151 149 149 147 146 148 149 149 151 152 150 156 159 162 163 145 132 172 185 130 113 89 10 225 153
37 19 318 56 51 12 229 229 296 93 273 350 12 25 21 25 76 40 357 360 62 50 12 37 11 37 95 119 122 115 118 117 146 140 136 144 144 138 141 146 150 151 155 157 158 161 161 165 164 169 172 174 175 172 169 168 164 162 160 155 152 149 148 148 147 148 152 153 154 154 153 153 158 165 156 133 131 117 70 32 58 129 137 119 41 109
108 137 102 128 138 190 222 267 117 122 110 98 66 32 42 25 51 39 11 48 40 64 82 62 24 358 27 81 136 126 134 118 147 135 125 135 140 146 149 150 152 155 158 159 161 165 165 166 168 169 172 174 172 170 168 165 159 159 159 156 154 151 151 150 150 153 155 157 159 160 157 157 162 167 136 139 131 120 116 111 51 36 47 81 114 106